• Join FlightAware (Why Join?)
  • Login
  • US Flag 
11:28AM EDT


 

Airport Tracker/Info


-or-


 

Live Flight TrackerFlight Track Log ✈ GGN7280 ✈ 08-Jun-2013 ✈ CYYZ - KALB

Flight Track Log - Related Links

Times and Time Zones

All times are in EDT time to prevent confusion due to time zone crossing. See the GGN7280 flight status page for this flight to view local times or setup timezone preferences in your user account.

Time Position Orientation Groundspeed Altitude Reporting Facility
EDT Latitude Longitude Course Direction KTS MPH feet Rate Location/Type
09:40AM 43.6667 -79.5667 90° East 150 173 1,700  Level Toronto Center
09:41AM 43.6667 -79.5000 90° East 190 219 3,600 1,740 Climbing Toronto Center
09:42AM 43.6333 -79.4333 125° Southeast 210 242 5,200 1,500 Climbing Toronto Center
09:43AM 43.6000 -79.3500 119° Southeast 210 242 6,600 1,320 Climbing Toronto Center
09:44AM 43.5833 -79.2833 109° East 220 253 7,900 1,320 Climbing Toronto Center
09:45AM 43.5833 -79.2000 90° East 230 265 9,300 1,380 Climbing Toronto Center
09:46AM 43.5667 -79.1000 103° East 230 265 10,700 1,380 Climbing Toronto Center
09:47AM 43.5500 -79.0167 105° East 230 265 12,100 1,200 Climbing Toronto Center
09:48AM 43.5333 -78.9167 103° East 240 276 13,100 1,140 Climbing Toronto Center
09:49AM 43.5333 -78.8333 90° East 250 288 14,400 1,200 Climbing Toronto Center
09:50AM 43.5167 -78.7333 103° East 260 299 15,500 1,080 Climbing Toronto Center
09:51AM 43.5000 -78.6167 101° East 260 299 16,600 1,020 Climbing Toronto Center
09:51AM 43.4950 -78.5658 98° East 259 298 17,500 840 Climbing Cleveland Center
09:52AM 43.4869 -78.4631 96° East 259 298 18,300 840 Climbing Cleveland Center
09:53AM 43.4706 -78.3606 102° East 259 298 19,200 840 Climbing Cleveland Center
09:54AM 43.4497 -78.2586 106° East 264 304 20,000 780 Climbing Cleveland Center
09:55AM 43.4392 -78.1531 98° East 269 310 20,800 720 Climbing Cleveland Center
09:56AM 43.4289 -78.0619 99° East 269 310 21,500 660 Climbing Cleveland Center
09:57AM 43.4164 -77.9597 100° East 274 315 22,200 660 Climbing Cleveland Center
09:58AM 43.4014 -77.8575 101° East 274 315 22,900 780 Climbing Cleveland Center
09:59AM 43.3886 -77.7550 100° East 274 315 23,800 540 Climbing Cleveland Center
10:00AM 43.3714 -77.6531 103° East 274 315 24,000 60 Climbing Cleveland Center
10:01AM 43.3519 -77.5456 104° East 274 315 24,000  Level Cleveland Center
10:02AM 43.3406 -77.4319 98° East 279 321 24,000 240 Level Cleveland Center
10:05AM 43.2833 -77.1667 106° East 290 334 24,800 300 Climbing Toronto Center
10:06AM 43.2833 -77.0667 90° East 280 322 25,000 60 Climbing Toronto Center
10:07AM 43.2667 -76.9500 101° East 290 334 25,000 -60 Level Toronto Center
10:08AM 43.2500 -76.8333 101° East 290 334 24,900 -60 Descending Toronto Center
10:09AM 43.2333 -76.7500 105° East 280 322 24,900  Level Toronto Center
10:10AM 43.2000 -76.6333 111° Southeast 280 322 25,000  Climbing Toronto Center
10:11AM 43.2000 -76.5167 90° East 280 322 24,900  Descending Toronto Center
10:12AM 43.1833 -76.4333 105° East 280 322 25,000  Climbing Toronto Center
10:13AM 43.1667 -76.3333 103° East 280 322 25,000  Level Toronto Center
10:13AM 43.1742 -76.3239 43° Northeast 276 318 25,000 -300 Level Boston Center
10:14AM 43.1589 -76.2175 101° East 276 318 24,600 -480 Descending Boston Center
10:15AM 43.1394 -76.1111 104° East 281 323 24,000 -780 Descending Boston Center
10:16AM 43.1167 -75.9758 103° East 281 323 23,000 -900 Descending Boston Center
10:17AM 43.1014 -75.8642 101° East 286 329 22,200 -840 Descending Boston Center
10:18AM 43.0836 -75.7550 103° East 291 335 21,400 -840 Descending Boston Center
10:19AM 43.0642 -75.6403 103° East 296 341 20,600 -840 Descending Boston Center
10:20AM 43.0464 -75.5286 102° East 301 346 19,800 -900 Descending Boston Center
10:21AM 43.0264 -75.4167 104° East 301 346 18,900 -900 Descending Boston Center
10:22AM 43.0064 -75.2994 103° East 306 352 18,000 -840 Descending Boston Center
10:23AM 42.9883 -75.1878 102° East 306 352 17,300 -600 Descending Boston Center
10:24AM 42.9639 -75.0731 106° East 306 352 16,800 -720 Descending Boston Center
10:25AM 42.9344 -74.9953 117° Southeast 323 372 16,100 -960 Descending Boston Center
10:25AM 42.9189 -74.9408 111° Southeast 298 343 15,600 -960 Descending Boston Center
10:26AM 42.8956 -74.8719 115° Southeast 295 339 15,000 -1,140 Descending Boston Center
10:26AM 42.8836 -74.8372 115° Southeast 294 338 14,500 -1,020 Descending Boston Center
10:27AM 42.8661 -74.7772 112° Southeast 295 339 14,000 -1,140 Descending Boston Center
10:27AM 42.8503 -74.7369 118° Southeast 298 343 13,400 -1,020 Descending Boston Center
10:28AM 42.8289 -74.6625 111° Southeast 297 342 13,000 -900 Descending Boston Center
10:29AM 42.8108 -74.6194 120° Southeast 293 337 12,400 -1,020 Descending Boston Center
10:29AM 42.7972 -74.5736 112° Southeast 290 334 12,000 -1,140 Descending Boston Center
10:29AM 42.7853 -74.5364 114° Southeast 289 333 11,400 -1,440 Descending Boston Center
10:30AM 42.7597 -74.4647 116° Southeast 285 328 10,600 -1,440 Descending Boston Center
10:30AM 42.7478 -74.4278 114° Southeast 291 335 10,000 -1,440 Descending Boston Center
10:31AM 42.7342 -74.3736 109° East 285 328 9,200 -1,320 Descending Boston Center
10:31AM 42.7183 -74.3250 114° Southeast 290 334 8,700 -1,440 Descending Boston Center
10:32AM 42.7006 -74.2594 110° East 285 328 7,800 -1,320 Descending Boston Center
10:32AM 42.6950 -74.2225 102° East 290 334 7,400 -1,020 Descending Boston Center
10:33AM 42.6769 -74.1683 114° Southeast 285 328 6,800 -1,140 Descending Boston Center
10:33AM 42.6631 -74.1228 113° Southeast 291 335 6,300 -1,020 Descending Boston Center
10:34AM 42.6431 -74.0658 116° Southeast 285 328 5,800 -1,020 Descending Boston Center
10:34AM 42.6353 -74.0347 109° East 269 310 5,400 -960 Descending Boston Center
10:35AM 42.6131 -73.9692 115° Southeast 273 314 4,700 -1,020 Descending Boston Center
10:36AM 42.5853 -73.8669 110° East 273 314 3,500 -1,140 Descending Boston Center
10:37AM 42.6006 -73.7997 73° East 202 232 2,500 -720 Descending Boston Center
10:38AM 42.6239 -73.7664 46° Northeast 164 189 2,100 -660 Descending Boston Center
10:39AM 42.6922 -73.8072 336° Northwest 145 167 1,200 -840 Descending Boston Center
10:40AM 42.7297 -73.8081 359° North 131 151 500 -720 Descending Boston Center
10:42AM 42.7333 -73.8000 North  Level FlightAware Approximate